D3121 Weather Reports


Display with metric or nautical units.
time (UTC)temp
F
wind
direction
speed
MPH
gust
MPH
rain 1hr
in
rain 24hr
in
rain mn
in
humidity
%
barometer
mb
20210920164019 65 135 8.0 9.0 0.00 0.00 0.00 75 1028.6
20210920163019 65 135 8.0 11.0 0.00 0.00 0.00 74 1028.7
20210920162020 65 135 8.0 10.0 0.00 0.00 0.00 75 1028.7
20210920161019 65 158 4.0 6.0 0.00 0.00 0.00 74 1028.7
20210920160020 64 135 6.0 8.0 0.00 0.00 0.00 76 1028.6
20210920155020 64 135 11.0 13.0 0.00 0.00 0.00 77 1028.7
20210920154020 63 135 6.0 8.0 0.00 0.00 0.00 76 1028.8
20210920153020 63 135 9.0 11.0 0.00 0.00 0.00 78 1028.8
20210920152020 63 135 8.0 9.0 0.00 0.00 0.00 77 1028.8
20210920151020 63 135 10.0 12.0 0.00 0.00 0.00 76 1028.9
20210920150017 63 135 10.0 12.0 0.00 0.00 0.00 77 1029.0
20210920145020 62 135 9.0 12.0 0.00 0.00 0.00 76 1029.0
20210920144020 62 135 11.0 13.0 0.00 0.00 0.00 77 1029.1
20210920143020 62 135 8.0 10.0 0.00 0.00 0.00 78 1029.1
20210920142020 62 135 9.0 11.0 0.00 0.00 0.00 78 1029.0
20210920141020 61 135 6.0 8.0 0.00 0.00 0.00 77 1029.0
20210920140020 61 135 6.0 7.0 0.00 0.00 0.00 81 1029.0
20210920135017 60 135 6.0 8.0 0.00 0.00 0.00 82 1028.7
20210920134020 60 113 6.0 7.0 0.00 0.00 0.00 82 1028.8
20210920133020 59 113 5.0 7.0 0.00 0.00 0.00 81 1028.7
20210920132019 59 113 3.0 5.0 0.00 0.00 0.00 82 1028.7
20210920131019 59 113 4.0 6.0 0.00 0.00 0.00 81 1028.6
20210920130020 59 293 2.0 3.0 0.00 0.00 0.00 80 1028.5
20210920125019 59 0.0 0.0 0.00 0.00 0.00 81 1028.4
20210920124017 59 293 1.0 2.0 0.00 0.00 0.00 80 1028.4
20210920123017 59 0.0 0.0 0.00 0.00 0.00 83 1028.3
20210920122020 58 0.0 0.0 0.00 0.00 0.00 85 1028.1
20210920121020 56 0.0 0.0 0.00 0.00 0.00 90 1028.0
20210920120020 54 0.0 0.0 0.00 0.00 0.00 93 1027.7
20210920115020 53 293 2.0 2.0 0.00 0.00 0.00 94 1027.7
20210920114020 52 293 2.0 3.0 0.00 0.00 0.00 95 1027.6
20210920113017 51 293 2.0 3.0 0.00 0.00 0.00 95 1027.6
20210920112020 51 0.0 0.0 0.00 0.00 0.00 97 1027.5
20210920111020 49 0.0 0.0 0.00 0.00 0.00 97 1027.3
20210920110019 48 0.0 0.0 0.00 0.00 0.00 97 1027.1
20210920105019 48 0.0 0.0 0.00 0.00 0.00 97 1027.1
20210920104020 48 0.0 0.0 0.00 0.00 0.00 96 1026.8
20210920103019 48 0.0 0.0 0.00 0.00 0.00 96 1026.7
20210920102017 48 0.0 0.0 0.00 0.00 0.00 97 1026.6
20210920101019 48 0.0 0.0 0.00 0.00 0.00 97 1026.6
20210920100019 48 0.0 0.0 0.00 0.00 0.00 96 1026.6
20210920095019 48 0.0 0.0 0.00 0.00 0.00 96 1026.6
20210920094019 48 0.0 0.0 0.00 0.00 0.00 96 1026.6
20210920093019 48 0.0 0.0 0.00 0.00 0.00 96 1026.5
20210920092019 48 0.0 0.0 0.00 0.00 0.00 96 1026.5
20210920091017 48 0.0 0.0 0.00 0.00 0.00 96 1026.4
20210920090020 48 0.0 0.0 0.00 0.00 0.00 96 1026.3
20210920085019 48 0.0 0.0 0.00 0.00 0.00 96 1026.4
20210920084019 48 0.0 0.0 0.00 0.00 0.00 96 1026.3
20210920083019 48 0.0 0.0 0.00 0.00 0.00 96 1026.3
20210920082019 48 0.0 0.0 0.00 0.00 0.00 96 1026.2
20210920081019 48 0.0 0.0 0.00 0.00 0.00 96 1026.1
20210920080016 48 0.0 0.0 0.00 0.00 0.00 96 1026.1
20210920075020 48 0.0 0.0 0.00 0.00 0.00 96 1026.0
20210920074019 49 0.0 0.0 0.00 0.00 0.00 96 1026.0
20210920073019 49 0.0 0.0 0.00 0.00 0.00 96 1026.0
20210920072019 49 0.0 0.0 0.00 0.00 0.00 95 1025.9
20210920071020 49 0.0 0.0 0.00 0.00 0.00 95 1025.8
20210920070019 49 0.0 0.0 0.00 0.00 0.00 95 1026.0
20210920065016 49 0.0 0.0 0.00 0.00 0.00 96 1025.8
20210920064020 49 0.0 0.0 0.00 0.00 0.00 95 1025.7
20210920063019 49 0.0 0.0 0.00 0.00 0.00 95 1025.8
20210920062019 49 0.0 0.0 0.00 0.00 0.00 95 1025.7
20210920061019 50 0.0 0.0 0.00 0.00 0.00 95 1025.8
20210920060019 50 0.0 0.0 0.00 0.00 0.00 95 1025.8
20210920055019 50 0.0 0.0 0.00 0.00 0.00 95 1025.8
20210920054016 50 0.0 0.0 0.00 0.00 0.00 95 1025.7
20210920053019 50 0.0 0.0 0.00 0.00 0.00 95 1025.6
20210920052020 51 0.0 0.0 0.00 0.00 0.00 95 1025.7
20210920051021 51 0.0 0.0 0.00 0.00 0.00 94 1025.4
20210920050019 51 0.0 0.0 0.00 0.00 0.00 95 1025.3
20210920045019 51 293 1.0 2.0 0.00 0.00 0.00 94 1025.1
20210920044019 51 0.0 0.0 0.00 0.00 0.00 94 1025.1
20210920043016 51 0.0 0.0 0.00 0.00 0.00 94 1025.1
20210920042019 51 0.0 0.0 0.00 0.00 0.00 94 1025.0
20210920041019 51 0.0 0.0 0.00 0.00 0.00 94 1025.0
20210920040019 51 0.0 0.0 0.00 0.00 0.00 94 1025.0
20210920035018 51 0.0 0.0 0.00 0.00 0.00 93 1024.9
20210920034018 52 0.0 0.0 0.00 0.00 0.00 93 1024.9
20210920033019 52 0.0 0.0 0.00 0.00 0.00 92 1024.9
20210920032018 52 0.0 0.0 0.00 0.00 0.00 91 1024.8
20210920031020 52 0.0 0.0 0.00 0.00 0.00 91 1024.7
20210920030019 52 0.0 0.0 0.00 0.00 0.00 92 1024.7
20210920025018 52 0.0 0.0 0.00 0.00 0.00 92 1024.6
20210920024019 52 0.0 0.0 0.00 0.00 0.00 92 1024.5
20210920023018 52 0.0 0.0 0.00 0.00 0.00 92 1024.4
20210920022018 53 0.0 0.0 0.00 0.00 0.00 92 1024.2
20210920021018 53 0.0 0.0 0.00 0.00 0.00 92 1024.1
20210920020018 53 0.0 0.0 0.00 0.00 0.00 91 1024.1
20210920015018 54 0.0 0.0 0.00 0.00 0.00 90 1024.1
20210920014018 54 0.0 0.0 0.00 0.00 0.00 90 1024.0
20210920013018 54 0.0 0.0 0.00 0.00 0.00 90 1024.0
20210920012019 55 0.0 0.0 0.00 0.00 0.00 90 1024.1
20210920011019 55 0.0 0.0 0.00 0.00 0.00 89 1023.9
20210920010018 56 0.0 0.0 0.00 0.00 0.00 88 1023.9
20210920005018 56 0.0 0.0 0.00 0.00 0.00 87 1023.8
20210920004018 57 0.0 0.0 0.00 0.00 0.00 85 1023.8
20210920003016 57 0.0 0.0 0.00 0.00 0.00 85 1023.7
20210920002018 58 0.0 0.0 0.00 0.00 0.00 85 1023.5
20210920001018 58 0.0 0.0 0.00 0.01 0.00 87 1023.4
20210920000018 57 0.0 0.0 0.00 0.01 0.00 85 1023.0
20210919235018 57 0.0 0.0 0.00 0.04 0.00 87 1022.7
20210919234018 58 0.0 0.0 0.00 0.04 0.00 87 1022.5
20210919233018 58 0.0 0.0 0.00 0.04 0.00 86 1022.4
20210919232015 58 0.0 0.0 0.00 0.04 0.00 86 1022.1
20210919231018 59 0.0 0.0 0.00 0.04 0.00 84 1022.0
20210919230018 60 0.0 0.0 0.00 0.04 0.00 82 1021.9
20210919225018 61 0.0 0.0 0.00 0.04 0.00 80 1021.8
20210919224018 62 0.0 0.0 0.00 0.04 0.00 76 1021.8
20210919223019 63 0.0 0.0 0.00 0.04 0.00 72 1021.7
20210919222018 64 0.0 0.0 0.00 0.04 0.00 70 1021.7
20210919221018 64 0.0 0.0 0.00 0.04 0.00 65 1021.6
20210919220018 65 0.0 0.0 0.00 0.04 0.00 63 1021.5
20210919215018 65 0.0 0.0 0.00 0.04 0.00 60 1021.3
20210919214018 66 0.0 0.0 0.00 0.04 0.00 57 1021.4
20210919213018 66 293 1.0 2.0 0.00 0.04 0.00 56 1021.4
20210919212018 66 0.0 2.0 0.00 0.04 0.00 57 1021.3
20210919211018 66 270 1.0 3.0 0.00 0.04 0.00 53 1021.3
20210919210018 67 0.0 2.0 0.00 0.04 0.00 55 1021.2
20210919205018 67 338 1.0 4.0 0.00 0.04 0.00 55 1021.3
20210919204018 67 338 4.0 5.0 0.00 0.04 0.00 54 1021.3
20210919203020 67 0 6.0 10.0 0.00 0.04 0.00 56 1021.3
20210919202020 67 0.0 2.0 0.00 0.04 0.00 57 1021.2
20210919201020 67 315 4.0 7.0 0.00 0.04 0.00 57 1021.1
20210919200020 67 0 3.0 5.0 0.00 0.14 0.00 55 1021.0
20210919195020 67 338 3.0 5.0 0.00 0.16 0.00 55 1021.1
20210919194020 67 338 1.0 2.0 0.00 0.16 0.00 54 1021.2
20210919193020 67 0 4.0 5.0 0.00 0.16 0.00 54 1021.1
20210919192020 67 270 2.0 4.0 0.00 0.16 0.00 55 1021.1
20210919191020 67 293 1.0 2.0 0.00 0.16 0.00 54 1021.1
20210919190020 67 0 6.0 8.0 0.00 0.16 0.00 52 1021.2
20210919185015 67 0 5.0 7.0 0.00 0.16 0.00 55 1021.3
20210919184020 66 0 8.0 9.0 0.00 0.16 0.00 55 1021.3
20210919183018 66 338 3.0 7.0 0.00 0.16 0.00 57 1021.3
20210919182020 66 0 3.0 6.0 0.00 0.16 0.00 58 1021.4
20210919181018 66 338 5.0 7.0 0.00 0.16 0.00 60 1021.6
20210919180020 65 0 7.0 10.0 0.00 0.16 0.00 56 1021.8
20210919175018 65 315 7.0 11.0 0.00 0.16 0.00 58 1021.8
20210919174020 65 315 5.0 7.0 0.00 0.16 0.00 55 1021.8
20210919173020 65 0 8.0 14.0 0.00 0.16 0.00 57 1021.9
20210919172020 65 338 5.0 7.0 0.00 0.16 0.00 56 1021.9
20210919171020 64 338 7.0 11.0 0.00 0.16 0.00 57 1022.1
20210919170020 64 338 8.0 11.0 0.00 0.16 0.00 58 1022.4
20210919165017 64 270 3.0 6.0 0.00 0.16 0.00 59 1022.5